Location: Ostrava
(49.8330°N, 18.2830°E)
Time: 02:26:08
(UTC+01:00)

ISS - Pass Details

Date: 15 December 2017
Orbit: 402 x 407 km, 51.6° (Epoch: 24 January)

Event Time Altitude Azimuth Distance (km) Brightness Sun altitude
Rises 16:06:41 0° 287° (WNW) 2,343 0.7 -3.6°
Reaches altitude 10° 16:08:47 10° 286° (WNW) 1,479 -0.3 -3.9°
Maximum altitude 16:12:05 71° 203° (SSW) 437 -3.5 -4.3°
Drops below altitude 10° 16:15:22 10° 118° (ESE) 1,470 -1.3 -4.8°
Enters shadow 16:19:27 -6° 115° (ESE) 3,151 0.4 -5.3°
